Regional Weather Roundup
Issued by NWS

Home | Current Version | Previous Version | Graphics & Text | Print | Product List | Glossary Off
Versions: 1 2 3 4 5 6 7 8 9 10 11 12 13 14 15 16 17 18 19 20 21 22 23 24 25 26 27 28 29 30 31 32 33 34 35 36 37 38 39 40 41 42 43 44 45 46 47 48 49 50

000
ASUS43 KFSD 281602
RWRSD

WEATHER ROUNDUP FOR SOUTH DAKOTA
NATIONAL WEATHER SERVICE SIOUX FALLS SD
1100 AM CDT SAT MAR 28 2015

NOTE: "FAIR" INDICATES FEW OR NO CLOUDS BELOW 12,000 FEET WITH NO
SIGNIFICANT WEATHER AND/OR OBSTRUCTIONS TO VISIBILITY.


SDZ001>005-009-010-012>017-281700-
NORTHWEST AND NORTH CENTRAL SOUTH DAKOTA

CITY           SKY/WX    TMP DP  RH WIND       PRES   REMARKS
BUFFALO          N/A     54  36  50 S13       29.75F
FAITH            N/A     51  33  50 S23       29.85F
MOBRIDGE       SUNNY     41  32  70 S16       29.92F
$$

SDZ012>016-024>037-041>051-057-063-072>074-281700-
SOUTHWEST AND SOUTH CENTRAL SOUTH DAKOTA

CITY           SKY/WX    TMP DP  RH WIND       PRES   REMARKS
RAPID CTY ARPT SUNNY     56  36  47 SE9       29.86F
PIERRE         SUNNY     40  31  70 SE15      29.95F
CUSTER         SUNNY     61  28  28 VRB7      29.94F
ELLSWORTH AFB  SUNNY     59  35  40 S9        29.85F
PHILIP         SUNNY     57  34  41 S16       29.90F
PINE RIDGE     SUNNY     62  37  39 SW9       29.92F
SPEARFISH      FAIR      64  36  34 CALM      29.86F
WINNER         FAIR      54  33  45 S14       29.98F
$$

SDZ004>011-016>023-039-040-281700-
NORTHEAST SOUTH DAKOTA

CITY           SKY/WX    TMP DP  RH WIND       PRES   REMARKS
ABERDEEN       SUNNY     41  29  62 S15       30.03F
WATERTOWN      PTSUNNY   33  26  75 S15       30.07F WCI  23
SISSETON         N/A     33  29  85 S15       30.08F WCI  23
$$

SDZ017-020-022-023-036>040-048>070-281700-
SOUTHEAST SOUTH DAKOTA

CITY           SKY/WX    TMP DP  RH WIND       PRES   REMARKS
SIOUX FALLS    MOSUNNY   39  26  59 S14       30.12S
HURON          SUNNY     38  28  67 S16G24    30.06F
MITCHELL       SUNNY     40  27  59 S17       30.08F
YANKTON        SUNNY     39  27  60 S15G21    30.11F
$$

ABBREVIATIONS USED IN REMARKS
   TC - TEMPERATURE IN CELSIUS
  WCI - WIND CHILL INDEX
   HX - HEAT INDEX
  VSB - VISIBILITY




USA.gov is the U.S. government's official web portal to all federal, state and local government web resources and services.